Home   Weather   USA   New York   Past weeks
Flag for USA

Past Weather in New York, New York, USA — January 2018

Currently: 80 °F. Sunny. (Weather station: New York City - Central Park, USA). See more current weather

January 2018 Weather in New York — Graph

°F

High & Low Weather Summary for January 2018

 TemperatureHumidityPressure
High61 °F (Jan 12, 11:51 am)100% (Jan 12, 7:51 pm)30.72 "Hg (Jan 12, 7:51 pm)
Low5 °F (Jan 7, 4:51 am)21% (Jan 25, 3:51 pm)29.29 "Hg (Jan 4, 1:59 pm)
Average33 °F62%30.16 "Hg
* Reported Jan 1 12:51 am — Jan 31 11:51 pm, New York. Weather by CustomWeather, © 2021

Note: Actual official high and low records may vary slightly from our data, if they occured in-between our weather recording intervals... More about our weather records

New York Weather History for January 1, 2018

Scroll right to see more
 ConditionsComfort  
Time TempWeatherWind HumidityBarometerVisibility
12:51 am
Mon, Jan 1
9 °FClear.9 mph55%30.31 "Hg10 mi
1:51 am9 °FClear.10 mph55%30.32 "Hg10 mi
2:51 am8 °FClear.10 mph57%30.33 "Hg10 mi
3:51 am8 °FClear.7 mph54%30.33 "Hg10 mi
4:51 am8 °FClear.9 mph54%30.35 "Hg10 mi
5:51 am7 °FClear.6 mph57%30.35 "Hg10 mi
6:51 am7 °FClear.8 mph57%30.36 "Hg10 mi
7:51 am7 °FSunny.6 mph60%30.36 "Hg10 mi
8:51 am8 °FSunny.6 mph60%30.37 "Hg10 mi
9:51 am11 °FSunny.8 mph53%30.39 "Hg10 mi
10:51 am12 °FSunny.9 mph48%30.37 "Hg10 mi
11:51 am14 °FSunny.8 mph44%30.36 "Hg10 mi
12:51 pm15 °FSunny.10 mph40%30.34 "Hg10 mi
1:51 pm17 °FSunny.9 mph37%30.32 "Hg10 mi
2:51 pm18 °FSunny.3 mph35%30.33 "Hg10 mi
3:51 pm18 °FSunny.9 mph34%30.32 "Hg10 mi
4:51 pm18 °FClear.7 mph35%30.33 "Hg10 mi
5:51 pm18 °FClear.9 mph34%30.34 "Hg10 mi
6:51 pm17 °FClear.3 mph39%30.36 "Hg10 mi
7:51 pm17 °FClear.8 mph39%30.37 "Hg10 mi
8:51 pm17 °FClear.5 mph42%30.34 "Hg10 mi
9:51 pm17 °FClear.10 mph47%30.34 "Hg10 mi
10:51 pm16 °FClear.12 mph53%30.34 "Hg10 mi
11:51 pm15 °FClear.3 mph58%30.34 "Hg10 mi
Weather by CustomWeather, © 2021

See weather overview